Regional Weather Roundup
Issued by NWS

Home | Current Version | Previous Version | Graphics & Text | Print | Product List | Glossary On
Versions: 1 2 3 4 5 6 7 8 9 10 11 12 13 14 15 16 17 18 19 20 21 22 23 24 25 26 27 28 29 30 31 32 33 34 35 36 37 38 39 40 41 42 43 44 45 46 47 48 49 50
000
ASUS43 KMKX 240307
RWRWI

WISCONSIN REGIONAL WEATHER ROUNDUP
NATIONAL WEATHER SERVICE MILWAUKEE/SULLIVAN WI
1000 PM CDT SAT MAY 23 2015

NOTE: "FAIR" INDICATES FEW OR NO CLOUDS BELOW 12,000 FEET WITH NO
SIGNIFICANT WEATHER AND/OR OBSTRUCTIONS TO VISIBILITY.

WIZ001-002-006>008-014>016-023>028-240400-
NORTHWEST WISCONSIN

CITY           SKY/WX    TMP DP  RH WIND       PRES   REMARKS
SUPERIOR ARPT  PTCLDY    60  43  53 SW5       30.14R
ASHLAND        PTCLDY    56  42  59 S6        30.16R
HAYWARD        PTCLDY    56  45  66 CALM      30.18R
SIREN          CLOUDY    60  50  68 CALM      30.17R
CUMBERLAND     CLOUDY    59  50  72 CALM      30.17R
RICE LAKE      CLOUDY    61  51  69 CALM      30.18S
CHETEK         CLOUDY    60  51  73 CALM      30.17R
LADYSMITH      CLOUDY    61  51  70 CALM      30.19R
EAU CLAIRE     NOT AVBL
MENOMONIE      MOCLDY    64  44  48 N7        30.15R
NEW RICHMOND   CLOUDY    61  49  66 E5        30.16R
OSCEOLA        CLOUDY    60  53  78 NE5       30.18R
$$

WIZ003>005-009-010-017-018-240400-
NORTH CENTRAL WISCONSIN

CITY           SKY/WX    TMP DP  RH WIND       PRES   REMARKS
MANITOWISH WTR MOCLDY    60  42  50 CALM      30.19R
ARBOR VITAE    CLOUDY    62  42  48 CALM      30.19R
WOODRUFF       CLOUDY    62  42  48 CALM      30.19R
RHINELANDER    CLOUDY    59  44  57 CALM      30.20R
EAGLE RIVER    CLOUDY    62  36  38 W3        30.18S
LAND O LAKES   CLOUDY    65  36  33 W5        30.20R
PHILLIPS       CLOUDY    59  43  56 CALM      30.18R
TOMAHAWK       CLOUDY    58  44  61 CALM      30.19R
MEDFORD        CLOUDY    59  48  68 CALM      30.18R
MERRILL        CLOUDY    61  48  63 CALM      30.19R
$$

WIZ029-030-035-036-043>047-240400-
CENTRAL WISCONSIN

CITY           SKY/WX    TMP DP  RH WIND       PRES   REMARKS
WAUSAU         MOCLDY    63  45  51 CALM      30.17R
MOSINEE        CLOUDY    59  46  63 CALM      30.19
MARSHFIELD     CLOUDY    65  46  50 CALM      30.17R
STEVENS POINT  MOCLDY    60  46  59 CALM      30.18R
WAUPACA        MOCLDY    65  47  52 CALM      30.17R
WAUTOMA        NOT AVBL
WISC RAPIDS    CLOUDY    63  43  48 CALM      30.18R
CAMP DOUGLAS   NOT AVBL
$$

WIZ011>013-019>022-031-037>040-048>050-240400-
NORTHEAST WISCONSIN

CITY           SKY/WX    TMP DP  RH WIND       PRES   REMARKS
ANTIGO         CLOUDY    61  48  60 CALM      30.19S
SHAWANO        MOCLDY    63  47  54 CALM      30.17R
OCONTO         PTCLDY    61  48  63 S3        30.16S
STURGEON BAY   PTCLDY    61  37  41 S10       30.20S
GREEN BAY      PTCLDY    65  41  41 S7        30.18R
MANITOWOC      NOT AVBL
APPLETON       MOCLDY    64  43  45 SE8       30.19R
CLINTONVILLE   CLOUDY    63  43  48 CALM      30.16S
OSHKOSH        PTCLDY    59  44  57 S5        30.18R
$$

WIZ032>034-041-042-053>061-240400-
SOUTHWEST WISCONSIN

CITY           SKY/WX    TMP DP  RH WIND       PRES   REMARKS
LA CROSSE      PTCLDY    67  49  52 SE5       30.13R
SPARTA         PTCLDY    60  49  67 CALM      30.16R
VIROQUA        PTCLDY    66  42  41 SE6       30.17R
BOSCOBEL       CLEAR     59  49  69 CALM      30.16R
PRAIRIE DU CHI PTCLDY    64  46  53 CALM      30.14R
PLATTEVILLE    PTCLDY    69  45  42 SE6       30.17R
$$

WIZ056-057-062-063-064-067-068-240400-
SOUTH CENTRAL WISCONSIN

CITY           SKY/WX    TMP DP  RH WIND       PRES   REMARKS
REEDSBURG      CLEAR     63  48  58 NE3       30.16R
BARABOO/DELLS  CLEAR     60  43  53 CALM      30.17R
LONE ROCK      NOT AVBL
MINERAL POINT  NOT AVBL
MADISON        MOCLDY    61  45  55 CALM      30.17R
MIDDLETON      CLEAR     62  45  53 CALM      30.18R
WATERTOWN      PTCLDY    64  47  53 E5        30.18R
MONROE         CLEAR     70  43  37 NE3       30.18R
JANESVILLE     PTCLDY    66  43  42 CALM      30.17R
$$

WIZ051-052-058>065-066-070>072-240400-
SOUTHEAST WISCONSIN

CITY           SKY/WX    TMP DP  RH WIND       PRES   REMARKS
MILWAUKEE      MOCLDY    59  41  51 E3        30.20R
WAUKESHA       MOCLDY    63  39  42 SE6       30.21R
MILWAUKEE/TIMM MOCLDY    64  36  34 CALM      30.21R
RACINE         MOCLDY    59  39  47 S5        30.22R
BURLINGTON     PTCLDY    61  44  53 CALM      30.19S
KENOSHA        PTCLDY    59  41  51 SE5       30.20R
FOND DU LAC    PTCLDY    60  42  51 S8        30.19R
SHEBOYGAN      PTCLDY    56  39  53 CALM      30.20S
WEST BEND      MOCLDY    59  37  44 CALM      30.20R
JUNEAU         PTCLDY    63  45  50 SE7       30.19R
$$

LSZ147-162-240400-
LAKE SUPERIOR

STATION/POSITION TIME  TEMP    WIND        PRES    WAVE
                       AIR SEA DIR/SP/G            HT/PER
                 (UTC) (F)     (DEG/KT/KT) (MB)    (FT/S)
W MID LAKE BUOY  0150   50 37  240/ 12/ 14   N/A     1
DEVILS ISLAND    0200   66     240/ 20/ 21   N/A
PORT WING        0240   64     180/  4/  6   N/A
SAXON HARBOR     0240   61     200/  2/  4   N/A
$$

LMZ867-665-643>646-240400-
LAKE MICHIGAN

STATION/POSITION TIME  TEMP    WIND        PRES    WAVE
                       AIR SEA DIR/SP/G            HT/PER
                 (UTC) (F)     (DEG/KT/KT) (MB)    (FT/S)
CHAMBERS ISLAND  0200   65     150/  6/ 13   N/A
N MID LAKE BUOY  0150   41 36  200/ 10/ 12   N/A     2/ 4
NORTHPORT PIER   0200   61     190/  5/ 10   N/A
SISTER BAY       0232   64     190/ 15/ 18   N/A
KEWAUNEE LAKESHO 0200   51     160/  4/  6   N/A
SHEBOYGAN LAKESH 0200   58     210/  6/  8   N/A
PORT WASHINGTON  0200   56      CALM  /  3   N/A
ATWATER BUOY     0200   52 46  160/  8/  8   N/A
MILWAUKEE LAKESH 0200   57     110/  3/  4   N/A
S MID LAKE BUOY  0150   47 38  120/ 10/ 10   N/A     0
KENOSHA   LAKESH 0100   55     180/  8/  9   N/A
$$

TC  - TEMPERATURE IN CELSIUS
VSB - VISIBILITY IN STATUTE MILES
WCI - WIND CHILL INDEX
HX  - HEAT INDEX




USA.gov is the U.S. government's official web portal to all federal, state and local government web resources and services.